STARLINK-32615, 62034

Orbit data source: Space-Track

STARLINK-32615, 62034 is a payload satellite owned by SpaceX/Seattle (US) in LEO that was launched on Thu, 21 Nov 2024 UTC via an FALCON 9 launch vehicle from the Air Force Eastern Test Range (AFETR). Payload-class satellites include a variety of spacecraft equipped with specific instruments for various scientific and technological missions. These include communications satellites like Starlink; space stations such as the ISS; scientific satellites like the Hubble; Earth observation satellites from companies like Planet Labs, Umbra, and HawkEye 360; GPS; miniature CubeSats for education and research; and military/defense satellites.

Loading next visibility...
Identifier
62034, 2024-216C
Orbit
LEO
Last TLE update
12 hours ago
Origin
Manufacturer
SpaceX/Seattle
Mission
Operational Commercial Communications
Bus & Motor
STARLINK V2M, Unknown motor
Mass
730 kg wet, ~700 kg dry
Launch date (UTC)
2024-11-21 (7 months ago)
Launch vehicle
FALCON 9
Launch site
Air Force Eastern Test Range (AFETR)
Object type
Payload
Rocket body
Debris
Shape & HBR
Box + 2 Pan, 29 m
Radar Cross Section
36.964 m², Large (>1 m²)

Expand to show TLE details & history

TLE from 12 hours ago
0 STARLINK-32615
1 62034U 24216C   25181.58335648  .00071241  00000-0  25119-2 0  9994
2 62034  43.0003 240.2279 0001418 267.7529 239.1870 15.28373422  5951
Epoch: 2025-06-30T14:00Z
TLE epoch observation values (Epoch: 2025-06-30T14:00:01.999Z)
Latitude
21.92322°
Longitude
-94.08857°
Altitude
480.69 km
Speed
7.629 km/s
True Right ascension
02h 19m 14s
True Declination
21° 47' 58"
Sunlit
Object was in daylight at epoch
Visualization orbit readout
Latitude
-42.46188°
Longitude
31.20689°
Altitude
492.578 km
Speed
7.619 km/s
Apparent Right ascension
06h 07m 22s
Apparent Declination
-69° 43' 27"
Sunlit
Object is in daylight
Visualization observer readout
Local Sidereal Time
13:10:21
Azimuth
206.841° SW
Elevation
-42.378°
Doppler factor
1
Orbital elements
Apogee altitude
483.593 km
Perigee altitude
481.647 km
Semi-major axis
6,860.757 km
Eccentricity
0.00014
Inclination
43.0003°
RAAN
240.2279°
Arg. of periapsis
267.7529°
True anomaly
Unknown
Mean anomaly
239.187°
Eccentric anomaly
Unknown
Mean motion
3.81931 °/min
Orbital period
94.26 mins
BSTAR
0.0025119
Loading maneuver chart data...
Loading SW <> Apogee altitude chart data...
Loading historical data...
Loading historical data...
Loading historical data...
Loading historical data...
Loading historical data...
Loading historical data...
Loading historical data...

STARLINK-32615 Visibility forecast

Observer location: undefined°, undefined°

Span
Click to sort rows by Start time (UTC) header in descending order
Start Az.
Max El. time (UTC)
Max El. Az.
Max El.
End time (UTC)
End Az.
5 mins2025-07-01 06:48:22.112Z200.387° SSW2025-07-01 06:51:22.112Z136.71° SSE23.55°2025-07-01 06:53:22.112Z96.971° ESE
6 mins2025-07-01 08:27:22.112Z256.64° W2025-07-01 08:29:22.112Z281.896° WNW43.785°2025-07-01 08:33:22.112Z71.352° E
6 mins2025-07-01 10:06:22.112Z290.275° WNW2025-07-01 10:08:22.112Z336.596° NNW36.859°2025-07-01 10:12:22.112Z78.331° E
6 mins2025-07-01 11:45:22.112Z288.195° WNW2025-07-01 11:47:22.112Z288.265° WNW42.62°2025-07-01 11:51:22.112Z109.276° ESE
|